Regional Weather Roundup
Issued by NWS

Home | Current Version | Previous Version | Text Only | Print | Product List | Glossary Off
Versions: 1 2 3 4 5 6 7 8 9 10 11 12 13 14 15 16 17 18 19 20 21 22 23 24 25 26 27 28 29 30 31 32 33 34 35 36 37 38 39 40 41 42 43 44 45 46 47 48 49 50

000
ASUS43 KMPX 231401
RWRMN
WEATHER ROUNDUP FOR MINNESOTA
NATIONAL WEATHER SERVICE TWIN CITIES/CHANHASSEN MN
800 AM CST FRI FEB 23 2018


NOTE: "FAIR" INDICATES FEW OR NO CLOUDS BELOW 12,000 FEET WITH NO
SIGNIFICANT WEATHER AND/OR OBSTRUCTIONS TO VISIBILITY. N/A MEANS
CURRENT SKY AND/OR WEATHER CONDITIONS ARE NOT AVAILABLE.

MNZ060>063-068>070-231500-
   Twin Cities Metro

CITY           SKY/WX    TMP DP  RH WIND       PRES   REMARKS
TWIN CITIES    CLOUDY    26  25  96 W13       30.08R WCI  15
ST PAUL        CLOUDY    28  25  88 W8        30.09R WCI  20
CRYSTAL        CLOUDY    26  22  84 W10       30.07R FOG     WCI  16
BLAINE         CLOUDY    27  27 100 W10       30.06R FOG     WCI  17
LAKEVILLE      CLOUDY    25  25 100 W10G16    30.08R WCI  15
EDEN PRAIRIE   CLOUDY    26  22  84 W12       30.09R WCI  16
SOUTH ST PAUL  FAIR      28  27  94 W3        30.08R
LAKE ELMO      CLOUDY    28  28 100 W8        30.07R WCI  20
$$
MNZ001>005-007-008-013>017-022>024-027-028-231500-
   Northwest Minnesota

CITY           SKY/WX    TMP DP  RH WIND       PRES   REMARKS
BEMIDJI        LGT SNOW  19  17  93 NW5       30.06R WCI  12
HALLOCK        FAIR       9   3  78 NW6       30.15S WCI  -1
ROSEAU         FAIR      12   7  79 W7        30.11R WCI   2
WARROAD        FAIR      12   9  85 CALM      30.10S
THIEF RVR FALL LGT SNOW  14  11  87 NW8       30.13R FOG     WCI   3
CROOKSTON      LGT SNOW  12  10  92 N9        30.16S WCI   0
FOSSTON        LGT SNOW  16  12  86 NW3       30.10S VSB 1
DETROIT LAKES  FAIR      19  18  93 NW8       30.11R WCI   9
MOORHEAD       LGT SNOW  18  16  93 NW8       30.16R WCI   7
PARK RAPIDS    LGT SNOW  20  16  84 NW9       30.04F FOG     WCI   9
MAHNOMEN       LGT SNOW  17  15  92 NW6       30.09S WCI   9
$$
MNZ006-009>011-018-025>026-231500-
   North Central Minnesota

CITY           SKY/WX    TMP DP  RH WIND       PRES   REMARKS
BAUDETTE       LGT SNOW  16  14  92 CALM      30.07S FOG
FLAG ISLAND    FAIR      10   5  79 NW5       30.09R WCI   2
INTL FALLS     LGT SNOW  20  17  88 N3        30.06S VSB 3/4
WASKISH        CLOUDY    18  18 100 CALM      30.07S
BIG FORK       LGT SNOW  21  19  93 CALM      30.04S
LONGVILLE      LGT SNOW  19  18  93 CALM      30.05S
GRAND RAPIDS   LGT SNOW  20  18  92 NW5       30.05S FOG     WCI  13
CRANE LAKE     SNOW      19  18  93 CALM      30.07F VSB 1/2
ORR            LGT SNOW  19  16  86 CALM      30.01F
COOK           LGT SNOW  19  18  93 CALM      30.03F
WALKER         LGT SNOW  19  17  93 W3        30.06S VSB 1
$$
MNZ012-019>021-037-231500-
   Northeast Minnesota

CITY           SKY/WX    TMP DP  RH WIND       PRES   REMARKS
DULUTH         LGT SNOW  24  21  88 N5        29.98F FOG     WCI  18
ELY            LGT SNOW  19  18  93 CALM      30.01F VSB 3/4
HIBBING        SNOW      20  19  96 NW6       30.02S VSB 1/2 WCI  12
EVELETH        LGT SNOW  21  19  93 CALM      30.02F VSB 3/4
DULUTH HARBOR  FLURRIES  25  23  93 CALM      30.04F
TWO HARBORS    LGT SNOW  28  23  80 CALM      29.98F
SILVER BAY     MIX PCPN  27  27 100 CALM      29.99S VSB 3/4
GRAND MARAIS     N/A     28  24  85 CALM      30.02F
G MARAIS ARPRT LGT SNOW  19  16  86 CALM      29.96F
$$
MNZ029>031-032-039>041-046>048-054>057-064-231500-
   West Central Minnesota

CITY           SKY/WX    TMP DP  RH WIND       PRES   REMARKS
FERGUS FALLS   MOCLDY    16  16 100 NW10      30.13R WCI   3
WHEATON        FLURRIES  19  16  86 W7        30.18R WCI  10
MORRIS         LGT SNOW  18  18 100 NW12      30.12R WCI   5
ALEXANDRIA     FAIR      18  15  88 W10       30.08R WCI   6
ELBOW LAKE     CLOUDY    17  16  97 NW10      30.13R WCI   5
WADENA         MIX PCPN  19  18  93 W6        30.07R WCI  11
GLENWOOD       FAIR      18  16  93 W10       30.10R WCI   6
APPLETON       CLOUDY    16  12  86 W7        30.16R FOG     WCI   6
BENSON         CLOUDY    18  16  93 NW8       30.15R WCI   7
MADISON        CLOUDY    19  18  93 NW10      30.17R WCI   8
WILLMAR        CLOUDY    16  14  93 W8        30.14R VSB 1/4 WCI   5
$$
MNZ033>034-036-042>043-049>051-058-059-231500-
   Central Minnesota

CITY           SKY/WX    TMP DP  RH WIND       PRES   REMARKS
ST CLOUD       MOCLDY    20  19  96 W7        30.06R WCI  11
SAUK CENTRE    CLOUDY    19  16  91 W6        30.08R WCI  10
PAYNESVILLE    CLOUDY    22  21  94 W12       30.09R WCI  11
AITKIN         LGT SNOW  19  18  93 CALM      30.02S
PINE RIVER     LGT SNOW  19  16  86 NW3       30.07F
BRAINERD       LGT SNOW  21  17  84 NW5       30.04S FOG     WCI  15
STAPLES        LGT SNOW  19  18  93 W5        30.06R WCI  13
LONG PRAIRIE   CLOUDY    19  18  93 SW5       30.07R WCI  13
LITTLE FALLS     N/A    N/A N/A N/A NW5         N/A
LITCHFIELD     CLOUDY    25  23  93 W12G20    30.10R WCI  14
BUFFALO        CLOUDY    25  22  91 W12       30.09R WCI  14
MAPLE LAKE     CLOUDY    26  24  93 W10G18    30.08R WCI  15
HUTCHINSON     CLOUDY    24  22  91 W15       30.12R FOG     WCI  11
$$
MNZ037-044-045-052-053-231500-
   East Central Minnesota

CITY           SKY/WX    TMP DP  RH WIND       PRES   REMARKS
PRINCETON      CLOUDY    25  21  86 SW3       30.05S
CAMBRIDGE        N/A     27  21  80 CALM      30.05S
RUSH CITY      CLOUDY    25  23  93 CALM      30.05R
MOOSE LAKE     LGT SNOW  23  21  93 CALM      30.01R
HINCKLEY       CLOUDY    23  23 100 NW3       30.03S
CLOQUET        LGT SNOW  23  21  93 W3        30.00S
MCGREGOR       CLOUDY    21  21 100 NW5       30.03R WCI  15
$$
MNZ071>073-080-081-089-090-097-098-231500-
   Southwest Minnesota

CITY           SKY/WX    TMP DP  RH WIND       PRES   REMARKS
MONTEVIDEO     CLOUDY    16  16 100 NW7       30.16R FOG     WCI   6
GRANITE FALLS  CLOUDY    15  13  92 W10       30.17R FOG     WCI   2
CANBY          CLEAR     21  18  86 NW12      30.16R WCI  10
MARSHALL       PTCLDY    16  14  92 W10       30.16R WCI   4
REDWOOD FALLS  CLOUDY    16  16 100 W13       30.15R FOG     WCI   2
OLIVIA         CLOUDY    21  19  93 W12       30.14R FOG     WCI   9
PIPESTONE      CLOUDY    18  16  93 NW10      30.14R FOG     WCI   6
WORTHINGTON    CLOUDY    19  16  88 W14       30.16R WCI   6
JACKSON        CLOUDY    19  16  86 W14       30.15R WCI   6
TRACY          CLEAR     19  17  92 W7        30.14R WCI  10
SLAYTON        CLOUDY    19  17  92 W14       30.15R WCI   6
$$
MNZ065>067-074>077-082>085-091>093-231500-
   South Central Minnesota

CITY           SKY/WX    TMP DP  RH WIND       PRES   REMARKS
MANKATO        MOCLDY    21  19  92 W16       30.12R WCI   7
NEW ULM        PTCLDY    16  12  86 W13       30.14R WCI   2
ST JAMES       CLEAR     16  12  86 W13       30.17R WCI   2
FAIRMONT       CLEAR     18  14  84 W13       30.17R WCI   5
GLENCOE        CLOUDY    24  25 100 W14G21    30.11R FOG     WCI  12
FARIBAULT      MOCLDY    27  21  80 W12       30.11R WCI  16
OWATONNA       CLOUDY    27  23  86 W15       30.10R WCI  15
WASECA         CLOUDY    23  21  93 W12       30.13R WCI  12
ALBERT LEA     FAIR      23  19  86 W3        30.13R
$$
MNZ078>079-086>088-094>096-231500-
   Southeast Minnesota

CITY           SKY/WX    TMP DP  RH WIND       PRES   REMARKS
ROCHESTER      CLOUDY    27  25  92 W14       30.09R WCI  16
RED WING       CLOUDY    30  25  80 W9        30.08R WCI  22
STANTON        CLOUDY    29  25  86 W10G16    30.08R WCI  20
DODGE CENTER   CLOUDY    27  23  86 W12       30.08R WCI  16
WINONA         CLOUDY    34  32  93 W6        30.08R WCI  29
AUSTIN         CLOUDY    27  21  80 W9        30.12R WCI  17
PRESTON        CLOUDY    28  24  88 W10       30.09R WCI  18
$$
ABBREVIATIONS USED IN REMARKS
   TC - TEMPERATURES IN CELSIUS
  WCI - WIND CHILL INDEX
   HX - HEAT INDEX
  VSB - VISIBILITY
$$




USA.gov is the U.S. government's official web portal to all federal, state and local government web resources and services.